Flag for U.S.A. Weather past 2 weeks in Garden Grove, California, U.S.A.

Now
61 °F

Clear.


Feels Like: 61 °F
Forecast: 60 / 84 °F
Wind: No wind

Location: Fullerton Municipal Airport

Current Time: Oct 23, 2014 at 4:58:44 AM

Latest Report: Oct 23, 2014 at 3:53 AM


Visibility: 8 mi

Pressure: 29.91 "Hg

Humidity: 83%

Dew point: 56 °F

Location of Garden GroveLocation

Historic Weather in Garden Grove — Graph

°F

Garden Grove temperature yesterday

Maximum temperature yesterday: 84 °F (at 1:53 PM)
Minimum temperature yesterday: 58 °F (at 6:53 AM)
Average temperature yesterday: 70 °F

Past Weeks' High & Low Weather Summary

 TemperatureHumidityPressure
High87 °F (Oct 8, 11:53 AM)87% (Oct 13, 3:53 AM)30.01 "Hg (Oct 13, 3:53 AM)
Low58 °F (Oct 22, 6:53 AM)21% (Oct 8, 11:53 AM)29.78 "Hg (Oct 8, 4:53 PM)
Average71 °F67%29.91 "Hg
* Reported Oct 8 2:53 AM — Oct 23 2:53 AM, Garden Grove, Weather by CustomWeather, © 2014

Note: Actual official high and low records may vary slightly from our data, if they occured in-between our weather recording intervals... More about our weather records

Advertising

Garden Grove weather history for previous 24 hours

 ConditionsComfort  
Time TempWeatherWind HumidityBarometerVisibility
2:53 AM
Oct 23
61 °FCool.No wind83%29.93 "Hg10 mi
1:53 AM63 °FMild.No wind81%29.94 "Hg10 mi
12:53 AM64 °FClear.No wind78%29.94 "Hg10 mi
11:53 PM
Oct 22
65 °FClear.No wind76%29.95 "Hg10 mi
10:53 PM67 °FClear.No wind73%29.95 "Hg10 mi
9:53 PM68 °FMild.No wind68%29.94 "Hg10 mi
8:53 PM71 °FClear.No wind61%29.93 "Hg10 mi
7:53 PM73 °FClear.3 mph66%29.91 "Hg10 mi
6:53 PM76 °FSunny.3 mph54%29.89 "Hg6 mi
5:53 PM78 °FSunny.6 mph50%29.87 "Hg10 mi
4:53 PM81 °FSunny.9 mph45%29.86 "Hg10 mi
3:53 PM82 °FSunny.6 mph46%29.87 "Hg10 mi
2:53 PM83 °FSunny.8 mph43%29.87 "Hg10 mi
1:53 PM84 °FSunny.10 mph43%29.87 "Hg10 mi
12:53 PM83 °FSunny.3 mph37%29.89 "Hg10 mi
11:53 AM80 °FSunny.5 mph44%29.92 "Hg10 mi
10:53 AM76 °FSunny.No wind48%29.93 "Hg10 mi
9:53 AM71 °FSunny.No wind61%29.94 "Hg9 mi
8:53 AM67 °FMild.3 mph68%29.94 "Hg8 mi
7:53 AM61 °FClear.No wind83%29.92 "Hg7 mi
6:53 AM58 °FClear.No wind87%29.90 "Hg9 mi
5:53 AM59 °FClear.No wind84%29.88 "Hg10 mi
4:53 AM60 °FClear.3 mph80%29.87 "Hg10 mi
Weather by CustomWeather, © 2014

See weather overviewHow to use our weather pages